FW8411 Weather Reports


Display with metric or nautical units.
time (UTC)temp
F
wind
direction
speed
MPH
gust
MPH
rain 1hr
in
rain 24hr
in
rain mn
in
humidity
%
barometer
mb
20221006020552 60 273 0.0 0.0 0.00 0.00 0.00 73 1014.1
20221006020053 60 273 0.0 0.0 0.00 0.00 0.00 73 1014.1
20221006015552 60 273 0.0 0.0 0.00 0.00 0.00 72 1014.2
20221006015053 61 273 0.0 0.0 0.00 0.00 0.00 71 1014.2
20221006014552 61 273 0.0 0.0 0.00 0.00 0.00 70 1014.3
20221006014053 62 273 0.0 0.0 0.00 0.00 0.00 69 1014.3
20221006013552 63 273 0.0 0.0 0.00 0.00 0.00 69 1014.3
20221006013052 63 273 0.0 0.0 0.00 0.00 0.00 68 1014.2
20221006012553 64 273 0.0 0.0 0.00 0.00 0.00 65 1014.3
20221006012052 65 273 0.0 0.0 0.00 0.00 0.00 63 1014.3
20221006011552 66 273 0.0 0.0 0.00 0.00 0.00 62 1014.3
20221006011053 66 273 0.0 0.0 0.00 0.00 0.00 61 1014.3
20221006010552 66 273 0.0 0.0 0.00 0.00 0.00 61 1014.4
20221006010052 66 258 0.0 0.0 0.00 0.00 0.00 60 1014.4
20221006005052 66 259 0.0 0.0 0.00 0.00 0.00 60 1014.4
20221006004552 65 255 0.0 0.0 0.00 0.00 0.00 61 1014.4
20221006004052 64 235 0.0 0.0 0.00 0.00 0.00 61 1014.4
20221006003552 64 235 0.0 0.0 0.00 0.00 0.00 61 1014.3
20221006003052 64 235 0.0 0.0 0.00 0.00 0.00 59 1014.2
20221006002552 65 235 0.0 0.0 0.00 0.00 0.00 58 1014.2
20221006001552 66 235 0.0 0.0 0.00 0.00 0.00 56 1014.1
20221006001053 66 235 0.0 0.0 0.00 0.00 0.00 54 1014.1
20221006000552 67 235 0.0 0.0 0.00 0.00 0.00 54 1014.1
20221006000052 67 235 0.0 0.0 0.00 0.00 0.00 53 1014.1
20221005235553 67 235 0.0 0.0 0.00 0.00 0.00 51 1014.1
20221005234552 68 235 0.0 0.0 0.00 0.00 0.00 50 1014.2
20221005233553 69 235 0.0 0.0 0.00 0.00 0.00 49 1014.1
20221005233052 69 235 0.0 0.0 0.00 0.00 0.00 48 1014.1
20221005232553 69 235 0.0 0.0 0.00 0.00 0.00 47 1014.1
20221005232053 69 235 0.0 0.0 0.00 0.00 0.00 46 1014.1
20221005231053 70 248 0.0 0.0 0.00 0.00 0.00 45 1014.0
20221005230552 71 234 0.0 0.0 0.00 0.00 0.00 44 1014.0
20221005230053 71 234 0.0 0.0 0.00 0.00 0.00 44 1013.9
20221005225552 71 240 0.0 0.0 0.00 0.00 0.00 43 1013.9
20221005225052 72 218 0.0 1.0 0.00 0.00 0.00 42 1013.9
20221005224553 72 162 0.0 1.0 0.00 0.00 0.00 41 1013.9
20221005224052 73 221 0.0 0.0 0.00 0.00 0.00 41 1013.8
20221005223552 73 197 0.0 0.0 0.00 0.00 0.00 40 1013.8
20221005223053 74 225 0.0 1.0 0.00 0.00 0.00 39 1013.8
20221005222552 74 222 0.0 0.0 0.00 0.00 0.00 39 1013.7
20221005222053 74 213 0.0 0.0 0.00 0.00 0.00 38 1013.8
20221005221553 75 126 0.0 1.0 0.00 0.00 0.00 40 1013.8
20221005221052 75 220 0.0 0.0 0.00 0.00 0.00 40 1013.8
20221005220553 75 217 0.0 0.0 0.00 0.00 0.00 42 1013.7
20221005220052 74 224 0.0 0.0 0.00 0.00 0.00 43 1013.7
20221005215052 73 216 0.0 0.0 0.00 0.00 0.00 44 1013.8
20221005214552 74 207 0.0 0.0 0.00 0.00 0.00 44 1013.8
20221005213552 75 245 0.0 0.0 0.00 0.00 0.00 41 1013.8
20221005213053 76 254 0.0 0.0 0.00 0.00 0.00 41 1013.8
20221005212552 76 223 0.0 0.0 0.00 0.00 0.00 41 1013.9
20221005212052 76 254 0.0 6.0 0.00 0.00 0.00 41 1013.9
20221005210553 77 254 0.0 2.0 0.00 0.00 0.00 41 1013.9
20221005210052 76 289 0.0 0.0 0.00 0.00 0.00 43 1013.9
20221005205553 76 291 0.0 2.0 0.00 0.00 0.00 43 1013.9
20221005205052 76 284 0.0 0.0 0.00 0.00 0.00 42 1013.9
20221005204553 76 293 0.0 0.0 0.00 0.00 0.00 42 1014.0
20221005204052 77 280 0.0 3.0 0.00 0.00 0.00 42 1014.0
20221005203553 77 243 0.0 3.0 0.00 0.00 0.00 43 1014.0
20221005203052 77 277 0.0 7.0 0.00 0.00 0.00 43 1014.0
20221005202553 77 268 0.0 0.0 0.00 0.00 0.00 41 1014.1
20221005202052 77 266 0.0 0.0 0.00 0.00 0.00 41 1014.1
20221005201052 77 248 0.0 1.0 0.00 0.00 0.00 41 1014.1
20221005200553 77 269 0.0 6.0 0.00 0.00 0.00 42 1014.1
20221005200052 76 244 0.0 0.0 0.00 0.00 0.00 42 1014.2
20221005195553 76 273 0.0 0.0 0.00 0.00 0.00 41 1014.2
20221005195052 76 284 0.0 0.0 0.00 0.00 0.00 42 1014.2
20221005194553 76 237 0.0 0.0 0.00 0.00 0.00 42 1014.3
20221005193553 76 280 0.0 3.0 0.00 0.00 0.00 42 1014.4
20221005193052 76 260 0.0 6.0 0.00 0.00 0.00 41 1014.5
20221005192052 76 288 0.0 1.0 0.00 0.00 0.00 41 1014.5
20221005191553 76 275 0.0 3.0 0.00 0.00 0.00 42 1014.5
20221005191052 76 289 0.0 1.0 0.00 0.00 0.00 42 1014.5
20221005190552 76 266 0.0 1.0 0.00 0.00 0.00 40 1014.6
20221005190053 77 250 0.0 1.0 0.00 0.00 0.00 40 1014.8
20221005185552 76 283 0.0 0.0 0.00 0.00 0.00 41 1014.8
20221005185053 76 245 1.0 7.0 0.00 0.00 0.00 41 1014.9
20221005184552 76 253 0.0 1.0 0.00 0.00 0.00 41 1014.9
20221005184053 76 241 0.0 0.0 0.00 0.00 0.00 42 1014.9
20221005183552 75 233 0.0 0.0 0.00 0.00 0.00 42 1015.0
20221005183053 75 243 0.0 0.0 0.00 0.00 0.00 42 1015.0
20221005182552 75 237 1.0 3.0 0.00 0.00 0.00 42 1015.1
20221005182053 75 248 0.0 2.0 0.00 0.00 0.00 41 1015.1
20221005181554 75 250 0.0 0.0 0.00 0.00 0.00 41 1015.2
20221005181053 75 268 0.0 0.0 0.00 0.00 0.00 42 1015.2
20221005180553 74 232 0.0 1.0 0.00 0.00 0.00 41 1015.3
20221005180052 74 248 0.0 0.0 0.00 0.00 0.00 42 1015.4
20221005175553 74 237 0.0 1.0 0.00 0.00 0.00 41 1015.5
20221005175053 74 228 0.0 0.0 0.00 0.00 0.00 41 1015.5
20221005174553 73 206 0.0 0.0 0.00 0.00 0.00 43 1015.5
20221005174054 73 201 0.0 0.0 0.00 0.00 0.00 43 1015.6
20221005173552 72 266 0.0 0.0 0.00 0.00 0.00 43 1015.6
20221005173053 72 275 0.0 0.0 0.00 0.00 0.00 42 1015.7
20221005172053 72 234 0.0 0.0 0.00 0.00 0.00 42 1015.8
20221005171553 73 241 0.0 0.0 0.00 0.00 0.00 41 1015.8
20221005171052 73 267 0.0 0.0 0.00 0.00 0.00 42 1015.8
20221005170553 73 275 0.0 3.0 0.00 0.00 0.00 40 1015.8
20221005170053 73 280 0.0 1.0 0.00 0.00 0.00 40 1015.9
20221005165053 73 218 0.0 1.0 0.00 0.00 0.00 43 1015.9
20221005164552 71 221 0.0 1.0 0.00 0.00 0.00 46 1016.0
20221005164053 71 258 0.0 0.0 0.00 0.00 0.00 44 1016.1
20221005163553 70 242 0.0 0.0 0.00 0.00 0.00 46 1016.2
20221005163053 70 275 0.0 1.0 0.00 0.00 0.00 45 1016.2
20221005162553 69 237 0.0 7.0 0.00 0.00 0.00 46 1016.3
20221005162053 69 265 0.0 1.0 0.00 0.00 0.00 45 1016.3
20221005161552 69 258 0.0 3.0 0.00 0.00 0.00 45 1016.3
20221005161052 69 255 0.0 0.0 0.00 0.00 0.00 47 1016.3
20221005160553 69 255 0.0 1.0 0.00 0.00 0.00 45 1016.4
20221005160052 69 270 0.0 1.0 0.00 0.00 0.00 44 1016.5
20221005155553 69 243 0.0 1.0 0.00 0.00 0.00 44 1016.5
20221005155052 69 271 0.0 2.0 0.00 0.00 0.00 43 1016.5
20221005154553 69 234 0.0 0.0 0.00 0.00 0.00 43 1016.5
20221005153053 69 256 0.0 0.0 0.00 0.00 0.00 42 1016.6
20221005152552 68 249 0.0 0.0 0.00 0.00 0.00 42 1016.7
20221005151552 68 227 0.0 0.0 0.00 0.00 0.00 48 1016.7
20221005150553 66 255 0.0 0.0 0.00 0.00 0.00 49 1016.7
20221005145553 65 260 0.0 0.0 0.00 0.00 0.00 50 1016.8
20221005145052 65 249 0.0 0.0 0.00 0.00 0.00 51 1016.9
20221005144553 64 258 0.0 0.0 0.00 0.00 0.00 53 1016.8
20221005144052 63 213 0.0 0.0 0.00 0.00 0.00 53 1016.9
20221005143052 62 249 0.0 0.0 0.00 0.00 0.00 54 1016.9
20221005142053 61 240 0.0 0.0 0.00 0.00 0.00 56 1016.9
20221005141553 61 243 0.0 0.0 0.00 0.00 0.00 57 1016.9
20221005141053 60 239 0.0 0.0 0.00 0.00 0.00 57 1016.9
20221005135553 59 235 0.0 0.0 0.00 0.00 0.00 60 1017.0
20221005135054 59 235 0.0 0.0 0.00 0.00 0.00 61 1017.0
20221005134553 58 235 0.0 0.0 0.00 0.00 0.00 62 1017.0
20221005134053 57 235 0.0 0.0 0.00 0.00 0.00 65 1017.0
20221005133553 56 235 0.0 0.0 0.00 0.00 0.00 68 1017.0
20221005133053 55 235 0.0 0.0 0.00 0.00 0.00 69 1017.0
20221005132552 55 235 0.0 0.0 0.00 0.00 0.00 69 1017.0
20221005132053 54 235 0.0 0.0 0.00 0.00 0.00 70 1017.0
20221005131552 53 235 0.0 0.0 0.00 0.00 0.00 72 1017.0
20221005131053 52 235 0.0 0.0 0.00 0.00 0.00 71 1017.0
20221005130552 52 235 0.0 0.0 0.00 0.00 0.00 72 1017.0
20221005130053 51 235 0.0 0.0 0.00 0.00 0.00 73 1017.0
20221005125553 51 235 0.0 0.0 0.00 0.00 0.00 73 1017.0
20221005125052 51 235 0.0 0.0 0.00 0.00 0.00 72 1017.0
20221005124553 50 235 0.0 0.0 0.00 0.00 0.00 72 1017.0
20221005123552 50 235 0.0 0.0 0.00 0.00 0.00 73 1016.9
20221005122552 49 235 0.0 0.0 0.00 0.00 0.00 74 1016.9
20221005121553 49 235 0.0 0.0 0.00 0.00 0.00 74 1017.0
20221005121052 49 235 0.0 0.0 0.00 0.00 0.00 75 1017.0
20221005120553 49 235 0.0 0.0 0.00 0.00 0.00 74 1017.1
20221005115553 49 235 0.0 0.0 0.00 0.00 0.00 75 1017.0
20221005115052 48 235 0.0 0.0 0.00 0.00 0.00 75 1017.1
20221005114553 48 235 0.0 0.0 0.00 0.00 0.00 75 1017.1
20221005114053 48 235 0.0 0.0 0.00 0.00 0.00 76 1017.1
20221005113053 48 235 0.0 0.0 0.00 0.00 0.00 77 1017.0
20221005112553 48 235 0.0 0.0 0.00 0.00 0.00 76 1017.0
20221005112053 48 235 0.0 0.0 0.00 0.00 0.00 77 1017.0
20221005111553 48 235 0.0 0.0 0.00 0.00 0.00 77 1017.1
20221005111053 47 235 0.0 0.0 0.00 0.00 0.00 77 1017.1
20221005110552 47 235 0.0 0.0 0.00 0.00 0.00 78 1017.1
20221005110053 48 235 0.0 0.0 0.00 0.00 0.00 77 1017.1
20221005105552 48 235 0.0 0.0 0.00 0.00 0.00 78 1017.1
20221005105053 47 235 0.0 0.0 0.00 0.00 0.00 77 1017.1
20221005104552 48 235 0.0 0.0 0.00 0.00 0.00 75 1017.2
20221005104053 49 235 0.0 0.0 0.00 0.00 0.00 75 1017.1
20221005103553 49 235 0.0 0.0 0.00 0.00 0.00 75 1017.1
20221005103053 49 235 0.0 0.0 0.00 0.00 0.00 75 1017.1
20221005102552 49 235 0.0 0.0 0.00 0.00 0.00 75 1017.1
20221005102053 49 235 0.0 0.0 0.00 0.00 0.00 74 1017.1
20221005100553 49 235 0.0 0.0 0.00 0.00 0.00 73 1017.0